Regional Weather Roundup
Issued by NWS Little Rock, AR

Home | Current Version | Previous Version | Graphics & Text | Print | Product List | Glossary On
Versions: 1 2 3 4 5 6 7 8 9 10 11 12 13 14 15 16 17 18 19 20 21 22 23 24 25 26 27 28 29 30 31 32 33 34 35 36 37 38 39 40 41 42 43 44 45 46 47 48 49 50
000
ASUS44 KLZK 231105
RWRLZK

WEATHER ROUNDUP FOR ARKANSAS
NATIONAL WEATHER SERVICE LITTLE ROCK AR
600 AM CDT SUN JUL 23 2017

NOTE: "FAIR" INDICATES FEW OR NO CLOUDS BELOW 12,000 FEET WITH NO
SIGNIFICANT WEATHER AND/OR OBSTRUCTIONS TO VISIBILITY.

ARZ001-003-010-029-231200-
NORTHWEST ARKANSAS

CITY           SKY/WX    TMP DP  RH WIND       PRES   REMARKS
FAYETTEVILLE   CLOUDY    72  72 100 S5        29.95R
FORT SMITH     CLEAR     79  76  90 CALM      29.89R
HARRISON       CLOUDY    74  71  91 SW3       29.94S
BENTONVILLE    MOCLDY    77  70  78 CALM      29.96R
ROGERS         CLOUDY    76  71  85 NW5       29.96R
SILOAM SPGS    CLOUDY    73  70  88 CALM      29.95R
HIGHFILL       MOCLDY    77  73  87 N5        29.95R
SPRINGDALE     MOCLDY    77  72  83 CALM      29.96
$$

ARZ004-005-016-231200-
NORTH CENTRAL ARKANSAS

CITY           SKY/WX    TMP DP  RH WIND       PRES   REMARKS
BATESVILLE     PTCLDY    77  73  88 W6        29.90R
FLIPPIN        CLOUDY    75  68  78 CALM      29.89R
MTN HOME       PTCLDY    75  72  90 CALM      29.91S
$$

ARZ040-041-231200-
WEST CENTRAL ARKANSAS

CITY           SKY/WX    TMP DP  RH WIND       PRES   REMARKS
MENA           CLEAR     77  75  94 CALM      29.94R
MOUNT IDA      CLEAR     74  71  91 CALM      29.90R
$$

ARZ009-017-025-026-028-231200-
NORTHEAST ARKANSAS

CITY           SKY/WX    TMP DP  RH WIND       PRES   REMARKS
CORNING        PTSUNNY   79  79 100 W8        29.88R
JONESBORO      PTCLDY    79  77  94 W8        29.88R
WALNUT RIDGE   PTCLDY    79  73  83 S7        29.88S
BLYTHEVILLE    CLEAR     79  75  87 SW6       29.89R
$$

ARZ022-023-033-042-044-231200-
CENTRAL ARKANSAS

CITY           SKY/WX    TMP DP  RH WIND       PRES   REMARKS
LITTLE ROCK    PTCLDY    75  75 100 SW6       29.90S
N LITTLE ROCK    N/A     77  73  90 CALM      29.88R
JACKSONVILLE   CLEAR     78  75  90 CALM      29.89S
CONWAY           N/A     79  75  89 S7        29.88R
SEARCY         CLEAR     76  76 100 CALM      29.91R FOG
HOT SPRINGS    CLEAR     78  76  93 W5        29.91S
RUSSELLVILLE   CLEAR     75  73  93 CALM      29.90R
CLINTON        MOCLDY    73  73 100 CALM      29.92R FOG
$$

ARZ036-231200-
EAST ARKANSAS

CITY           SKY/WX    TMP DP  RH WIND       PRES   REMARKS
WEST MEMPHIS   CLEAR     76  75  97 S7        29.89S
$$

ARZ050-053-066-070-073-231200-
SOUTHWEST ARKANSAS

CITY           SKY/WX    TMP DP  RH WIND       PRES   REMARKS
ARKADELPHIA    FAIR      74  73  97 CALM      29.91R
CAMDEN         CLEAR     75  72  88 CALM      29.91R
TEXARKANA      PTCLDY    77  75  93 S7        29.91R
EL DORADO      CLEAR     74  73  97 CALM      29.93R
DE QUEEN       CLEAR     74  74 100 CALM      29.89R FOG
$$

ARZ056-057-069-231200-
SOUTHEAST ARKANSAS

CITY           SKY/WX    TMP DP  RH WIND       PRES   REMARKS
PINE BLUFF     CLEAR     74  72  93 SW3       29.91S
STUTTGART      CLEAR     75  63  64 S8        29.92S
MONTICELLO     PTCLDY    75  72  90 SW5       29.93R

$$





USA.gov is the U.S. government's official web portal to all federal, state and local government web resources and services.